{"data":{"norad_id":69948,"intl_designator":"2026-157F","name":"STARLINK-37891","alt_names":[],"object_type":"PAYLOAD","status":"ACTIVE","operator":null,"country":"US","launch_date":"2026-07-09","launch_site_code":"AFETR","launch_vehicle":null,"mission":null,"orbit_class":"UNKNOWN","rcs_meters":null,"size_class":null,"mass_kg":null,"dimensions":null,"purposes":["comms"],"wikipedia_slug":null,"has_3d_model":false,"image_url":null,"decayed_at":null,"tle_current":{"epoch":"2026-09-19T16:51:13.882464Z","epoch_age_seconds":86729,"freshness":"FRESH","line1":"1 69948U 26157F   26262.70224401  .00020914  00000+0  62833-3 0  9995","line2":"2 69948  53.1583 337.2212 0001052  85.3327 274.7795 15.34402142 11255","mean_motion":15.34402142,"eccentricity":0.0001052,"inclination_deg":53.1583,"raan_deg":337.2212,"arg_perigee_deg":85.3327,"mean_anomaly_deg":274.7795,"bstar":0.00062833,"rev_number":1125,"period_min":93.847627071417,"perigee_km":461.97721801559,"apogee_km":463.41652946262,"semimajor_km":6840.8338737391,"source":"CELESTRAK","updated_at":"2026-09-20T09:00:44.299750Z"}}}